Wind_Speed
20 22 23 24 24 25 25 25 26 26 27 28 28 27 26 25 25 24 23 22 21 22 23 23 23 23 23 22 22 24 26 29 31 30 26 24 23 20 17 17 17 19 19 19 19 18 16 15 14 13 11 10 8 7 5 3 3 5 6 6 7 13 12 10 9 12 15 15 13 13 12 13 13 10 8 7 4 7 8 5 8 9 9 11 14 17 17 17
19 21 22 23 25 26 26 26 26 27 28 29 29 29 29 28 27 26 26 25 23 23 23 24 25 25 25 24 23 24 25 27 30 32 31 28 26 23 20 18 18 19 21 21 20 19 18 16 16 14 12 11 9 7 5 2 2 4 4 3 7 11 11 11 10 10 12 13 14 13 12 12 13 11 8 7 6 7 8 7 9 12 10 11 14 17 17 16
20 20 21 23 25 26 27 28 28 28 28 29 30 31 31 30 30 29 28 27 26 25 24 24 26 26 26 26 25 25 25 26 28 31 33 32 29 26 24 21 19 19 21 22 21 20 18 16 15 15 13 11 10 8 6 2 1 4 2 3 7 9 10 10 10 11 11 11 12 12 10 10 10 11 9 6 6 6 8 9 11 13 12 12 14 16 16 15
21 21 22 23 25 26 28 28 29 29 29 29 30 31 31 32 32 32 31 30 29 28 27 25 26 27 28 27 27 26 26 26 27 29 32 34 32 29 27 25 22 20 20 21 22 20 19 17 16 16 14 12 12 10 7 3 2 4 2 4 7 8 8 9 10 11 12 12 12 11 10 10 8 10 9 6 7 6 7 8 10 15 15 13 14 15 15 14
23 23 23 23 24 26 27 29 30 30 31 31 30 31 31 32 33 34 34 33 32 30 29 28 27 27 28 29 28 28 27 27 27 28 30 33 35 34 31 28 25 23 21 20 21 21 20 19 18 17 16 15 13 12 9 5 4 5 4 5 7 8 7 11 12 12 13 13 12 11 11 13 12 10 9 6 7 8 8 8 9 14 16 15 15 15 15 15
25 24 24 24 24 25 27 28 30 31 31 32 31 31 32 32 33 34 35 36 35 33 31 30 29 28 28 30 30 29 29 28 27 27 28 30 33 36 35 31 29 27 23 20 20 21 22 22 21 20 19 17 14 12 11 8 6 7 6 6 7 8 8 11 12 12 13 13 12 11 12 15 14 10 8 8 7 7 8 9 9 11 15 16 16 15 15 15
26 26 25 25 25 25 26 27 29 31 32 32 33 33 32 32 32 34 36 37 37 36 34 32 31 30 29 30 31 31 30 29 29 28 28 29 31 34 36 35 32 30 27 23 21 21 23 24 24 23 21 19 16 14 13 11 9 9 8 6 7 8 9 10 9 10 11 13 13 13 12 13 14 12 9 9 8 7 7 8 9 10 13 15 16 15 14 14
27 27 26 26 26 26 26 26 28 30 31 32 33 34 34 33 32 33 35 37 38 37 36 34 33 32 31 30 31 32 32 30 30 30 29 29 30 32 34 36 35 33 31 27 24 23 23 25 25 25 24 21 19 17 16 15 13 12 10 8 7 8 9 9 8 8 9 11 14 15 13 12 13 13 11 10 10 8 7 8 10 10 12 14 15 16 14 14
28 28 28 27 27 27 26 26 27 29 31 32 33 34 34 34 33 32 34 36 38 38 37 37 35 33 33 31 31 32 33 32 31 31 31 30 30 31 33 35 37 36 34 31 28 25 24 26 27 27 25 23 22 22 20 17 15 13 13 11 8 7 7 8 8 8 8 11 15 17 15 13 13 13 11 12 11 9 8 8 10 11 12 14 15 16 16 15
29 29 29 29 28 28 27 27 27 28 30 31 33 33 34 34 34 32 33 35 37 37 38 38 37 35 34 33 32 32 33 33 33 32 32 31 30 31 32 33 35 37 36 34 31 28 27 28 27 26 25 25 25 24 20 17 15 14 15 15 10 7 6 8 9 8 7 10 16 16 15 13 13 14 13 12 10 9 9 8 9 11 12 14 14 15 16 16
30 30 29 29 29 29 28 27 27 28 29 30 32 32 33 33 33 32 32 34 36 36 37 38 38 37 35 34 33 33 33 33 33 33 32 32 32 31 32 32 34 35 36 35 33 33 33 31 27 25 26 27 26 24 21 19 17 16 17 17 13 10 8 10 10 9 8 10 14 15 15 14 13 14 15 13 10 9 10 8 8 10 12 14 14 15 14 14
31 31 30 29 29 28 28 27 27 27 28 29 30 31 31 31 31 31 32 32 33 35 37 37 38 37 36 35 34 34 33 33 33 33 32 32 32 32 32 32 33 35 36 35 36 38 37 33 28 26 26 26 26 25 24 22 19 18 19 19 15 13 12 12 11 10 10 10 13 15 16 15 13 12 14 15 12 10 10 9 8 8 11 13 14 14 14 14
31 30 30 29 28 27 27 27 27 26 27 28 29 30 30 30 30 30 30 30 31 32 35 36 36 37 37 36 34 33 32 32 32 33 33 32 32 33 33 32 32 34 36 38 40 41 39 36 31 28 25 24 25 26 25 23 21 20 20 20 17 15 14 14 13 9 8 6 9 14 14 14 13 11 11 12 13 11 9 10 9 8 10 12 13 14 14 13
30 29 29 28 27 26 26 26 26 26 26 27 28 28 29 29 29 28 28 28 28 29 32 34 35 36 37 36 34 33 32 32 33 33 33 33 33 33 33 33 32 34 36 38 40 41 41 38 35 31 26 24 25 26 26 24 22 21 20 20 18 15 15 16 14 9 8 5 6 11 13 12 12 11 12 12 12 13 11 10 10 9 10 12 12 13 14 14
29 28 28 26 25 25 24 25 25 25 26 27 28 28 28 28 27 27 27 26 26 27 29 32 35 36 37 35 34 33 33 33 33 34 34 34 34 34 34 34 33 34 36 37 39 40 40 40 38 34 30 27 27 27 27 24 22 21 19 19 18 16 15 16 15 11 9 7 5 8 11 12 11 11 15 16 13 13 13 12 11 11 12 12 13 13 14 15
27 27 26 25 24 24 23 24 24 25 26 27 27 27 27 26 26 26 25 25 25 25 27 29 33 35 35 34 33 33 34 35 35 34 35 35 36 36 35 35 35 35 36 37 38 38 38 39 38 36 33 31 29 27 27 25 23 22 20 19 18 17 16 17 17 12 9 8 7 6 7 10 10 11 14 14 12 12 12 12 12 12 13 14 14 13 14 16
26 26 25 24 24 23 23 24 24 25 26 26 26 25 25 25 25 24 24 24 24 24 26 28 30 32 33 33 33 35 37 37 36 35 36 36 37 37 36 35 36 36 35 36 37 37 37 37 37 37 36 35 32 28 27 26 23 20 20 19 19 18 17 18 18 14 10 10 10 8 7 9 9 12 14 12 10 11 11 11 11 11 12 14 14 14 14 15
25 25 24 24 24 23 23 24 24 24 25 25 25 24 23 23 23 23 23 23 23 24 24 26 28 30 32 33 34 35 37 38 37 35 36 37 37 37 37 36 36 36 36 36 36 37 37 37 37 38 39 37 34 30 26 24 22 21 20 21 20 19 19 19 19 17 14 12 12 10 10 9 9 12 13 12 11 11 12 12 12 10 11 13 13 14 14 14
25 24 24 23 23 23 23 23 24 24 24 24 23 22 22 21 21 21 22 22 22 23 24 25 26 29 30 31 32 33 35 36 36 35 35 36 37 38 38 38 37 36 36 36 35 36 37 38 38 38 39 38 35 30 25 24 26 25 24 24 23 22 22 21 19 17 16 15 15 13 12 12 12 14 14 14 15 14 14 14 13 11 11 12 12 12 12 12
24 23 23 22 22 22 22 22 22 22 22 22 22 22 21 20 20 21 21 21 21 22 23 25 26 28 29 29 29 31 33 34 35 35 35 36 37 38 38 38 37 36 35 35 35 36 37 39 39 37 36 35 33 30 28 29 30 29 27 26 25 25 24 22 20 18 17 17 17 16 16 16 15 14 14 15 15 15 16 14 12 11 11 12 11 11 11 11
23 22 21 21 21 21 21 21 21 21 21 21 21 21 21 20 20 21 21 20 20 21 23 24 25 27 28 28 28 29 31 32 34 35 35 36 38 38 38 38 36 35 35 36 37 37 38 38 37 35 35 34 32 32 32 32 32 31 30 28 27 26 24 25 24 21 20 20 20 20 19 17 15 13 12 15 15 14 15 15 13 12 12 12 11 11 10 9
22 21 20 20 20 20 20 20 19 19 19 19 19 19 19 18 20 20 19 19 19 21 22 23 24 25 26 26 27 27 29 30 32 33 35 36 37 37 37 37 35 35 35 36 37 38 37 36 34 35 36 36 36 35 35 34 33 33 33 30 27 26 26 27 26 25 23 22 20 19 17 14 14 14 13 17 18 16 16 15 13 13 13 13 11 12 12 10
20 20 19 19 19 19 19 19 18 17 17 17 17 17 16 16 18 19 18 19 19 21 22 23 24 24 24 24 26 26 28 29 30 31 33 35 37 36 36 36 35 35 36 37 37 37 34 31 32 36 38 38 38 38 37 36 35 36 36 32 28 27 26 25 25 27 26 23 18 14 13 13 13 15 14 17 18 17 17 15 12 12 13 14 14 13 15 14
18 19 18 18 18 18 18 17 16 15 14 14 14 15 14 14 17 18 18 19 19 20 22 23 23 23 23 24 25 26 27 29 30 31 32 34 35 35 35 35 35 36 36 36 36 35 31 31 34 37 38 38 38 39 39 38 37 37 37 34 30 27 25 24 27 28 27 26 20 14 13 14 15 16 16 17 19 19 18 15 14 13 12 14 15 13 15 16
17 17 17 17 17 17 16 16 15 13 12 11 10 11 12 13 14 15 16 16 18 19 19 20 20 21 21 22 24 25 26 27 29 31 31 32 33 33 34 35 35 35 35 35 35 33 32 34 37 37 37 38 39 39 40 40 38 38 38 35 30 27 26 27 29 29 27 24 19 15 14 15 15 16 16 17 19 21 20 16 15 15 12 14 14 13 15 15
16 16 17 17 16 16 15 14 13 12 11 8 7 8 8 8 8 10 12 14 15 17 18 18 18 19 20 22 24 24 24 26 28 29 30 30 32 33 34 34 34 34 35 36 35 33 33 36 37 36 36 38 39 40 40 40 39 38 37 34 30 28 29 29 28 26 24 21 18 18 19 17 15 15 14 17 19 19 20 17 14 14 14 16 16 14 15 15
15 15 16 16 16 15 14 14 13 12 10 7 5 4 2 3 5 6 8 11 12 14 16 16 16 18 20 21 22 21 23 24 27 29 29 29 31 32 32 33 33 34 35 37 36 34 34 35 36 37 36 37 39 40 40 39 39 37 34 33 31 31 31 31 28 24 21 22 21 21 21 19 18 16 13 15 17 17 18 15 11 13 15 17 17 14 15 15
13 14 15 16 16 15 15 15 14 12 9 6 6 5 4 4 5 6 6 8 9 10 12 13 15 16 18 20 20 20 22 24 27 29 30 29 30 30 31 32 33 34 36 37 36 35 35 34 34 36 37 37 37 38 39 39 38 34 32 33 33 33 33 30 29 26 24 25 24 21 20 18 19 20 18 16 15 16 16 12 8 10 14 17 16 15 15 15
13 13 14 15 15 15 15 15 14 11 8 6 7 7 7 7 8 9 9 9 9 9 10 11 13 15 18 20 21 21 22 25 28 30 30 30 29 30 31 31 31 33 35 36 35 36 37 36 35 37 38 36 33 35 39 40 36 33 34 36 35 36 35 31 30 29 27 28 25 21 18 17 17 19 20 19 17 17 17 15 12 11 13 15 15 16 16 14
12 12 13 13 14 14 14 14 12 10 7 7 8 8 10 11 11 10 10 12 10 9 11 11 11 13 17 19 21 21 22 25 29 30 31 31 30 30 31 32 32 33 34 34 33 35 36 36 38 38 37 35 33 34 39 38 36 36 37 38 39 39 37 35 33 32 31 30 27 22 19 18 18 18 19 19 17 18 18 17 15 14 13 12 13 17 17 14
11 11 11 12 13 13 13 12 11 9 8 8 8 9 12 12 12 12 13 13 11 10 11 12 11 12 14 16 17 19 20 23 26 29 30 31 32 32 31 32 33 33 32 31 31 32 34 36 37 36 35 35 35 36 39 40 39 39 40 40 40 40 39 38 37 37 35 31 26 24 23 24 22 21 22 21 18 18 18 17 17 17 15 13 14 17 17 15
11 11 11 11 12 12 12 11 10 8 8 8 7 8 10 9 10 12 13 13 12 12 12 13 13 13 12 12 13 16 18 20 22 25 27 28 30 32 32 31 32 32 29 28 29 31 33 35 35 35 35 36 38 37 39 43 44 43 44 43 41 40 42 42 41 41 37 30 26 26 27 28 25 24 25 24 22 20 19 20 20 20 19 17 17 18 18 18
10 10 10 10 10 10 10 10 8 8 7 7 7 8 8 6 6 8 9 10 11 10 11 13 13 13 12 11 9 11 15 17 18 20 23 24 27 30 31 30 30 30 28 26 28 30 32 33 34 34 35 37 39 39 39 44 47 46 46 46 44 43 44 43 40 40 37 31 29 29 29 29 27 27 27 25 24 22 21 21 22 22 22 21 21 22 22 21
8 9 9 9 9 9 9 9 8 7 6 6 8 9 5 1 2 3 5 8 9 8 10 12 12 12 13 12 9 8 11 14 15 17 18 19 22 25 27 27 28 28 27 27 29 31 32 33 34 35 35 35 37 38 39 43 47 47 47 47 46 45 45 43 39 36 34 33 33 33 34 33 29 28 28 27 25 23 22 21 21 22 23 24 25 25 24 23
7 7 8 8 7 7 8 8 6 5 4 4 7 7 3 2 1 2 4 8 9 8 10 11 11 12 13 12 10 9 9 10 12 14 16 18 19 21 24 25 26 27 27 28 30 32 33 34 34 35 35 34 34 37 39 44 47 47 48 48 48 46 45 43 40 34 29 30 34 35 34 32 30 29 28 28 27 26 23 22 21 20 20 21 25 25 24 23
6 6 6 6 4 4 6 6 5 4 4 4 5 4 1 3 3 3 4 6 7 7 9 11 11 13 14 14 12 11 12 13 13 15 17 19 20 21 25 27 27 28 29 30 31 32 33 33 34 34 34 34 34 35 38 43 47 48 49 49 49 47 45 41 41 38 33 30 33 36 33 29 30 31 29 28 28 27 25 24 23 22 20 19 22 22 22 23
5 6 5 4 3 3 3 4 4 4 4 5 4 2 2 5 7 7 6 6 7 7 8 9 11 13 15 15 14 15 17 17 18 17 14 17 21 23 26 28 29 29 29 30 31 31 32 33 33 33 33 33 35 36 38 42 47 48 49 50 50 50 47 42 40 39 40 37 33 33 34 32 32 32 30 29 27 26 25 24 23 23 22 21 22 21 21 22
5 5 4 3 3 2 2 3 3 3 3 4 3 1 3 6 8 8 8 8 8 9 8 9 11 13 15 16 16 18 19 19 18 15 13 17 21 24 26 28 29 29 29 31 31 31 32 33 33 33 33 33 36 38 39 41 45 48 49 49 50 51 49 47 42 40 42 44 40 35 33 34 35 33 29 28 27 25 23 22 21 21 22 23 24 23 22 23
5 4 4 3 2 2 3 2 1 2 3 4 2 0 2 2 3 4 7 9 9 10 10 10 11 13 16 18 18 18 20 21 18 16 17 18 19 22 26 28 30 30 30 32 32 32 34 34 33 34 34 34 35 38 40 41 44 47 49 49 49 49 49 48 44 40 40 43 44 42 38 37 37 33 28 27 27 27 24 22 21 21 22 23 24 23 22 23
6 5 4 3 2 2 3 3 3 1 3 4 2 1 1 1 2 1 4 9 11 12 12 12 12 14 16 18 18 18 20 22 20 18 20 19 18 21 23 27 31 32 31 33 34 34 35 35 34 35 35 35 35 37 39 39 42 45 48 50 48 48 49 47 43 41 41 41 43 44 44 42 40 36 31 28 27 28 26 24 23 24 25 25 25 24 23 23
7 6 5 4 3 3 4 5 5 2 2 2 2 2 1 2 3 3 1 6 11 13 13 13 14 16 17 17 16 18 19 19 20 21 21 20 19 20 20 23 30 33 33 32 33 36 37 36 35 35 37 36 35 37 38 37 39 43 46 49 49 47 47 46 43 42 43 43 43 43 44 43 42 40 37 33 31 30 27 25 25 26 28 28 26 24 24 24
7 7 6 5 5 4 5 6 6 2 1 3 4 3 1 3 4 3 2 3 8 12 13 13 16 17 19 19 18 18 20 20 20 21 21 20 21 22 21 22 27 31 33 31 31 36 39 38 36 35 36 37 35 35 37 37 39 42 44 46 49 49 48 46 45 45 45 46 45 44 43 42 43 42 39 36 34 33 29 27 26 25 27 31 29 26 25 25
7 6 6 6 6 5 5 6 6 2 2 5 5 2 2 2 4 4 2 3 5 9 10 10 14 16 19 22 22 21 20 21 21 21 21 22 23 23 23 24 25 28 31 31 30 34 37 38 37 35 34 36 35 33 35 38 41 42 44 44 46 48 49 49 48 47 46 47 47 47 45 44 44 42 40 37 35 34 32 31 30 25 26 31 30 27 27 26
6 6 6 6 6 5 4 5 5 2 3 5 4 2 2 1 3 3 1 0 1 4 7 8 10 13 16 20 23 23 21 21 22 22 22 23 23 24 25 26 26 25 27 29 28 30 33 35 35 33 33 35 35 33 35 38 42 45 46 45 44 45 48 49 50 48 47 47 48 48 47 45 43 41 39 38 37 37 36 36 35 30 28 31 30 28 28 26
7 7 7 6 6 5 4 5 5 3 3 3 2 2 2 2 1 2 2 3 4 2 2 5 7 9 12 16 20 23 24 22 22 23 24 24 23 24 26 27 27 27 28 29 28 30 30 30 31 31 31 35 37 36 36 38 41 45 46 44 43 44 46 49 51 50 48 47 48 49 48 46 43 40 38 37 37 38 38 39 39 34 32 33 33 31 28 24
8 8 8 7 7 6 4 5 6 5 4 3 3 2 1 1 3 3 3 3 3 3 1 4 7 8 10 12 14 19 23 25 25 24 26 27 27 25 24 24 26 28 29 30 29 31 30 28 30 30 30 35 39 39 39 39 41 44 44 43 42 44 46 49 51 51 49 48 48 49 49 47 45 42 38 36 36 37 38 38 38 36 35 36 36 35 32 27
9 9 9 9 9 7 4 5 6 5 4 3 3 2 0 2 4 3 3 3 3 3 2 1 4 6 8 9 10 12 17 24 28 28 28 29 30 29 25 23 24 26 30 32 31 32 32 29 29 30 30 34 39 41 41 41 41 42 42 42 42 43 46 48 50 51 51 50 49 50 49 48 46 43 39 37 36 36 36 37 37 36 35 36 36 35 35 33
8 9 10 10 10 7 4 4 5 5 3 3 4 3 3 4 4 3 3 4 5 4 3 2 1 3 5 7 8 7 7 14 22 27 29 29 30 31 30 27 26 25 27 32 33 33 34 33 31 29 29 32 37 40 41 41 40 41 41 42 42 43 46 49 51 52 53 52 51 50 50 48 46 42 39 37 36 35 34 35 35 34 34 35 32 29 31 34
8 9 10 10 9 7 4 5 6 4 2 4 5 5 5 5 4 3 3 5 5 5 4 2 1 1 2 5 8 8 6 7 11 17 22 25 26 27 25 25 26 26 26 30 35 35 35 36 35 33 30 30 33 37 39 40 39 38 38 40 43 45 47 50 52 53 53 53 52 52 51 48 45 43 40 38 37 37 35 34 34 33 33 34 30 27 28 30
9 9 10 10 9 7 4 5 6 4 2 3 5 6 6 6 4 2 3 4 4 3 3 2 2 3 3 3 6 9 9 9 8 9 13 18 21 22 20 17 19 24 25 29 35 37 37 38 38 37 34 32 33 35 37 37 37 37 36 38 41 45 47 49 51 53 53 51 50 50 50 48 46 44 43 41 39 38 37 34 32 31 30 29 28 28 29 29
9 9 10 11 9 6 5 5 6 4 3 3 4 5 5 4 4 4 3 4 4 3 2 2 3 4 3 2 2 6 9 10 11 10 10 11 15 18 19 17 16 18 21 25 31 36 39 40 40 40 39 37 35 36 35 37 38 38 37 36 39 42 44 46 48 50 51 49 47 47 48 48 46 43 43 42 40 38 36 34 32 30 27 25 25 27 28 29
8 9 10 10 9 7 6 6 5 3 3 3 5 6 3 2 2 4 4 4 4 4 3 3 3 3 4 4 3 3 5 7 10 12 12 12 13 15 17 17 16 17 18 21 27 32 37 40 41 43 43 41 38 37 35 36 38 40 39 38 41 43 44 43 45 46 47 46 45 46 47 48 46 42 40 40 38 36 33 32 32 31 30 28 26 25 25 26
Wind_Direction
279 276 274 272 271 269 266 262 258 255 253 252 250 250 249 250 250 251 252 251 247 242 241 240 237 234 231 228 225 222 219 217 214 212 212 217 222 218 217 218 213 209 208 210 210 209 205 203 208 213 217 219 225 234 255 288 3 354 330 13 98 134 140 150 149 146 150 147 145 150 150 148 140 124 119 125 111 97 93 114 124 118 129 134 137 141 148 156
284 277 272 269 267 266 265 263 260 257 254 251 250 248 247 247 247 248 248 249 249 245 241 239 239 237 233 229 225 224 222 220 217 215 213 215 220 218 217 219 216 212 209 211 211 210 208 204 207 212 216 218 223 230 243 273 8 334 316 49 106 129 136 148 150 145 152 152 149 153 153 150 143 135 139 141 131 114 107 121 119 117 126 126 132 137 145 152
289 280 273 267 264 262 261 260 258 256 254 252 250 248 246 245 245 246 245 245 247 247 244 239 238 238 236 231 227 224 223 221 219 217 216 215 218 219 218 218 218 216 213 213 213 211 209 207 208 213 216 217 220 225 233 243 317 302 291 103 113 125 133 144 151 151 154 160 156 154 150 143 141 141 147 146 139 126 114 125 123 120 126 124 125 129 136 142
292 284 276 270 265 262 260 259 258 256 254 252 249 248 246 244 243 244 244 243 243 245 245 242 238 237 237 235 229 225 224 222 220 218 218 216 217 218 218 217 218 219 217 215 215 213 212 211 211 213 216 216 218 219 220 218 248 265 234 143 122 122 140 148 159 167 160 164 162 150 140 140 147 148 147 147 138 120 107 126 133 129 129 129 126 127 132 136
295 290 284 277 271 266 263 261 259 258 256 253 251 248 245 244 243 242 242 242 241 242 244 244 241 237 236 236 233 227 224 222 221 219 217 217 217 217 217 216 217 220 219 216 215 214 214 213 212 212 214 213 214 215 213 203 212 230 209 163 138 127 152 163 170 180 170 167 162 147 143 153 164 153 139 149 143 120 114 126 138 137 135 134 132 132 134 137
295 293 289 284 277 272 267 264 262 260 258 256 254 251 247 244 242 242 242 241 240 240 241 243 243 240 236 235 235 231 225 222 222 220 218 216 216 217 218 216 217 220 220 217 214 214 215 215 213 212 212 211 210 215 215 204 197 211 207 178 159 140 141 162 177 188 181 169 158 156 155 157 165 161 137 141 144 119 119 130 136 142 139 137 137 138 139 141
293 292 290 287 282 277 272 267 264 261 259 257 256 254 250 246 242 241 241 241 240 239 240 242 243 242 238 235 235 233 228 223 222 221 218 216 215 216 217 217 217 219 220 218 214 214 215 216 215 212 211 210 210 213 216 208 199 209 215 194 177 161 140 154 183 195 185 168 162 169 165 158 163 168 153 141 144 127 120 131 136 143 141 139 139 139 141 143
293 291 289 287 284 280 275 270 265 262 260 258 256 254 253 249 245 241 240 240 239 238 239 241 241 242 240 237 235 234 231 226 222 221 219 217 215 214 215 216 216 218 219 219 215 213 214 216 216 213 210 210 210 210 211 210 207 212 221 211 185 180 163 155 171 184 180 170 172 174 167 168 165 163 161 150 145 131 124 134 138 144 141 140 140 138 139 143
293 292 290 288 285 282 278 272 267 263 260 258 256 254 253 251 248 243 240 240 239 238 238 239 240 241 240 239 236 234 232 228 224 221 220 217 215 214 213 214 215 216 218 219 218 216 216 216 216 214 211 211 212 212 209 209 213 216 224 222 199 189 180 163 164 177 182 177 182 177 165 173 170 159 160 155 149 134 129 135 138 147 141 141 144 140 141 144
294 292 290 289 287 284 281 276 270 265 262 259 256 254 253 251 250 246 242 240 238 237 237 237 239 240 240 238 237 235 233 230 227 223 220 218 216 214 213 212 213 214 216 217 218 218 218 218 216 213 211 212 215 215 213 210 213 218 227 228 208 185 184 180 176 182 194 186 189 182 165 175 176 162 154 152 154 137 133 137 136 147 144 141 145 142 142 145
295 293 291 289 287 285 282 278 273 268 263 260 258 256 254 252 250 248 245 241 238 237 236 236 237 238 239 238 236 235 233 231 228 225 222 219 217 215 213 211 210 212 213 214 215 216 218 218 217 213 211 213 214 216 216 214 211 214 226 228 207 181 190 200 191 192 203 194 192 184 170 176 179 167 155 152 160 143 138 142 134 146 147 142 146 145 145 145
296 293 292 290 288 285 282 279 274 269 265 261 259 257 255 253 251 249 247 243 239 236 235 236 235 236 238 238 236 234 233 232 229 226 222 220 219 217 215 212 209 210 210 210 213 217 219 218 216 214 213 212 214 215 216 216 212 211 220 225 209 184 190 208 204 200 202 199 197 186 174 174 174 174 165 157 159 148 141 143 136 145 148 143 148 150 148 146
296 294 293 291 289 286 282 279 275 270 267 263 260 258 256 254 251 249 247 245 242 237 235 235 235 235 236 236 236 235 233 231 229 226 222 220 219 218 217 214 211 210 209 210 212 215 218 218 216 216 215 213 214 215 216 216 214 212 217 223 216 191 191 211 214 205 196 201 198 180 170 170 170 175 173 162 156 147 139 142 138 143 149 145 148 153 151 149
297 295 293 291 288 285 281 278 275 271 268 264 261 258 256 254 253 250 248 247 244 240 236 235 235 234 233 233 234 233 231 229 228 225 222 219 218 218 217 215 212 211 211 212 214 215 216 217 216 215 214 213 214 215 216 217 216 216 217 224 223 201 196 213 219 208 184 181 181 171 168 170 174 177 174 167 159 150 144 146 146 146 150 146 149 158 158 157
299 296 293 290 287 284 280 277 274 270 267 264 262 259 257 255 254 251 250 248 245 242 238 235 235 234 232 230 230 231 229 227 225 223 221 219 218 217 215 214 213 212 212 212 214 216 217 216 215 214 212 212 214 214 214 215 217 218 218 225 226 213 205 211 219 209 178 175 184 176 169 169 179 184 178 171 163 158 150 147 154 153 150 151 155 163 165 165
299 296 292 289 286 283 278 274 271 268 265 264 262 260 258 256 254 252 250 248 245 242 238 235 235 234 232 229 227 227 228 226 223 221 220 219 218 217 215 213 213 212 212 213 214 216 218 217 215 213 212 212 213 212 211 212 215 217 217 221 222 219 213 210 217 212 183 187 208 199 175 171 182 187 184 176 164 164 157 148 158 162 155 156 161 165 168 170
298 295 291 289 286 282 278 274 271 268 266 264 262 261 259 257 255 253 250 247 244 240 237 234 234 234 232 228 224 224 226 226 223 220 219 218 217 218 217 214 213 212 212 213 213 214 216 217 216 213 212 213 212 210 210 210 213 217 217 218 219 218 217 213 213 207 188 191 205 205 193 188 189 184 183 182 170 167 163 152 158 167 161 160 166 167 169 173
299 295 293 291 288 284 281 278 274 272 269 267 265 263 261 258 255 253 250 246 243 240 236 233 232 232 231 227 223 223 226 227 224 220 219 218 216 216 216 214 213 212 212 213 213 213 214 216 216 214 212 213 212 210 209 207 209 213 213 214 217 215 215 216 212 204 195 196 201 197 191 185 183 183 184 191 184 173 172 164 159 166 166 163 168 171 172 175
302 299 297 295 292 289 286 283 280 277 273 271 268 266 262 258 255 252 249 246 243 240 236 232 230 230 231 229 226 224 225 227 227 222 218 218 217 216 215 214 213 212 212 213 213 212 212 214 215 214 213 212 211 208 206 206 208 209 208 209 213 213 215 216 213 208 202 203 203 198 192 182 182 194 197 197 192 180 179 174 163 166 167 165 167 170 174 178
306 304 302 299 296 294 291 287 284 280 276 273 269 266 262 258 253 249 246 244 242 240 237 232 229 228 229 228 226 223 222 223 225 222 218 217 217 216 216 216 213 212 211 212 213 213 212 213 214 214 213 211 209 206 205 207 209 210 208 207 211 214 215 215 213 210 204 201 198 199 201 195 193 206 209 200 193 185 182 177 167 168 168 166 166 167 176 182
310 307 305 302 301 299 295 291 287 282 279 274 270 266 262 257 251 247 245 242 239 237 236 233 230 228 226 225 224 222 221 220 222 222 219 218 217 216 216 216 213 210 211 211 212 213 212 212 212 212 211 208 206 204 205 208 210 211 209 207 209 212 213 213 211 208 203 197 196 201 205 205 204 211 210 199 194 188 184 178 172 175 173 167 169 167 169 182
312 309 308 306 305 303 299 295 290 286 282 277 272 267 262 256 250 247 243 239 236 235 235 233 231 229 226 224 222 221 220 219 219 221 221 220 219 217 216 215 212 209 209 211 213 213 213 211 210 210 210 207 203 202 205 208 209 212 211 209 209 213 214 215 214 211 206 200 202 207 206 210 211 208 204 196 194 191 187 184 181 184 178 167 174 173 162 172
313 312 311 310 309 307 303 300 296 292 285 278 271 263 257 251 247 244 238 234 232 230 230 229 229 228 225 222 221 220 218 216 214 216 218 219 220 219 216 214 212 209 210 211 212 213 212 209 209 209 210 209 205 202 204 206 208 211 213 211 211 214 217 220 221 218 214 208 209 213 207 210 213 210 207 198 197 196 195 196 190 194 192 173 173 176 165 169
315 314 313 314 314 312 309 307 304 299 293 286 277 265 251 241 238 236 232 229 228 227 228 228 227 225 221 218 219 219 219 217 213 211 213 216 219 218 216 214 211 210 211 211 211 210 207 206 208 209 209 209 207 204 203 205 208 211 212 211 212 215 218 220 222 221 219 215 214 214 203 202 209 212 207 198 200 201 204 208 192 192 204 184 173 172 170 175
316 316 317 319 320 318 317 316 314 312 307 297 287 273 252 236 233 232 228 225 223 223 226 226 225 223 220 216 216 217 218 218 215 212 212 213 215 215 215 215 212 210 210 211 211 207 205 207 209 208 208 207 206 205 205 205 207 211 213 211 210 214 218 220 222 221 219 217 218 219 207 200 205 209 204 198 201 202 204 210 196 188 194 187 180 172 169 179
318 320 322 324 325 325 325 326 326 326 319 307 301 290 261 233 227 228 223 217 215 217 218 218 217 218 217 216 215 214 214 215 214 213 212 211 212 212 213 214 213 211 209 209 209 206 206 209 209 208 208 207 206 204 206 206 207 210 213 211 207 212 219 221 223 222 219 216 217 218 213 209 206 203 203 202 204 204 202 203 198 195 192 186 188 181 170 178
323 326 328 329 331 332 336 339 339 337 331 333 347 336 276 196 199 211 213 209 206 209 211 210 211 213 214 215 214 211 210 212 212 213 212 210 211 211 210 211 211 209 209 209 207 205 207 210 210 209 209 208 207 205 205 207 208 210 212 212 209 211 218 221 221 218 215 215 214 214 212 213 212 206 202 199 199 197 192 190 192 197 197 189 189 189 176 175
328 332 334 336 338 341 347 350 348 342 343 13 40 53 90 130 167 170 178 183 180 189 199 203 207 210 212 213 211 208 207 207 208 210 210 208 209 209 208 210 211 209 209 209 206 204 205 207 209 209 209 209 209 206 204 205 207 206 209 212 212 213 217 220 219 214 213 214 213 214 214 212 215 216 211 203 197 192 189 192 193 189 190 187 191 197 185 176
333 338 340 343 344 349 357 357 352 350 1 44 67 84 107 129 144 144 150 149 146 163 178 189 200 203 207 209 207 205 204 203 204 206 208 206 206 206 205 206 209 210 211 209 206 205 205 203 205 207 207 207 207 206 205 204 201 201 207 212 212 214 214 214 214 211 211 214 210 211 217 215 214 218 220 218 215 211 206 209 209 191 181 181 189 199 192 182
337 343 345 347 348 356 5 3 359 4 23 55 78 99 117 129 134 139 150 144 138 152 163 173 190 200 207 209 205 202 200 202 204 205 205 203 201 203 205 205 207 210 211 208 207 209 207 205 205 206 205 202 200 204 206 202 196 199 207 210 210 214 214 212 212 210 210 215 210 205 212 216 211 210 215 217 216 216 215 213 213 205 191 185 188 195 192 185
338 345 348 349 353 3 13 11 8 18 39 57 81 103 116 128 138 145 150 143 136 147 159 166 174 190 206 209 205 201 199 203 206 206 205 202 199 199 203 205 207 208 208 206 207 209 210 208 208 207 203 198 197 201 202 197 194 200 206 208 209 212 215 213 214 215 214 215 210 202 206 212 206 203 207 208 205 205 208 208 206 203 198 194 192 191 191 189
337 345 350 352 359 11 21 21 18 28 44 58 77 96 107 125 152 158 156 150 141 146 163 171 174 183 194 199 199 197 196 199 203 207 207 202 200 198 199 201 204 206 204 202 204 208 210 211 209 206 203 199 197 199 199 195 194 199 204 207 208 210 215 216 216 220 216 210 206 201 206 210 204 202 206 207 205 201 203 207 204 198 194 194 194 189 190 193
337 344 351 356 3 16 28 31 29 35 49 64 74 83 97 119 155 164 171 172 156 150 166 175 180 185 182 182 187 190 192 192 196 206 207 200 199 199 198 199 200 202 198 196 201 204 206 210 209 206 205 203 199 198 199 197 196 199 203 206 207 209 216 217 216 220 216 208 205 200 203 208 205 206 211 212 214 209 207 211 210 205 197 192 194 194 193 195
335 340 348 357 6 19 33 39 38 42 55 73 78 82 91 124 166 147 167 172 157 148 161 171 177 176 167 165 169 182 188 184 189 203 204 197 199 199 197 196 198 198 193 192 198 199 201 205 207 206 205 205 203 200 199 199 199 200 203 207 209 211 217 218 216 218 216 210 204 198 200 203 204 209 214 215 219 215 210 212 214 216 212 201 200 202 199 197
330 334 343 355 6 21 35 44 51 53 46 55 76 88 83 295 242 156 151 155 153 149 153 162 170 163 153 153 165 180 176 170 180 186 182 183 193 198 197 195 194 193 190 190 194 196 197 201 203 204 204 204 203 202 201 200 199 200 203 207 210 212 218 221 220 218 217 212 206 204 205 202 202 210 213 213 215 213 209 208 206 212 217 210 205 204 202 199
320 328 335 348 2 21 35 45 60 69 45 33 65 95 116 280 259 237 204 172 171 172 156 155 163 156 148 150 162 169 158 154 159 157 159 172 181 190 196 196 195 193 192 192 194 195 197 199 201 201 203 202 200 201 203 202 200 201 203 206 209 212 216 220 223 222 219 217 215 213 212 204 202 208 210 209 210 211 210 207 203 203 207 209 207 207 209 207
310 323 327 342 357 13 33 39 48 64 59 50 67 107 233 259 260 253 233 200 196 199 169 159 165 158 153 154 156 158 154 149 148 146 155 172 177 185 193 194 195 195 193 195 198 198 196 198 200 199 199 200 198 198 200 203 202 201 204 207 209 212 215 217 223 225 222 223 221 214 209 204 204 207 209 210 211 212 213 212 210 209 209 210 210 212 217 215
295 313 320 338 354 350 2 19 28 48 57 64 77 79 261 255 255 249 231 212 204 201 175 161 168 165 162 161 156 156 157 153 153 157 172 179 179 184 188 190 194 193 190 194 197 196 194 196 199 198 196 198 199 199 199 201 203 203 204 208 210 211 214 217 222 226 226 225 223 217 209 205 206 208 211 214 215 213 213 216 217 217 219 220 217 218 219 216
282 302 311 320 340 333 326 326 339 45 44 49 71 348 292 268 263 249 226 218 212 201 182 169 175 176 175 172 166 164 162 159 165 175 179 181 184 184 183 186 190 188 187 192 194 193 193 194 195 196 195 196 200 202 201 201 202 203 205 208 211 212 213 216 221 226 228 227 226 226 222 215 211 211 212 214 215 215 217 222 224 222 224 225 222 221 217 213
278 292 293 290 301 314 300 278 270 348 28 15 21 233 287 39 38 24 216 216 213 203 194 189 190 189 188 185 180 178 172 167 174 182 184 189 189 183 182 185 186 184 184 189 192 192 192 193 193 193 193 195 200 204 204 202 202 204 206 207 210 214 215 214 217 222 226 227 228 231 232 228 222 220 219 216 214 215 219 227 229 225 224 223 221 219 211 207
272 284 288 284 295 312 303 282 277 301 18 331 281 245 313 31 42 43 137 202 211 212 211 210 208 202 199 198 194 190 186 183 184 188 193 199 195 186 185 188 187 185 183 186 190 191 193 193 191 191 193 195 200 204 203 202 202 204 207 208 209 212 214 214 215 220 224 226 228 230 234 235 233 230 228 224 221 221 225 233 233 229 225 220 217 215 209 206
264 281 293 298 303 309 305 283 272 288 346 283 258 252 345 29 32 35 79 166 206 220 225 221 217 212 207 205 201 196 196 197 198 200 202 204 201 193 190 192 192 190 187 186 188 190 193 195 192 192 196 198 199 202 203 202 202 203 206 209 210 211 213 213 215 219 223 227 229 230 232 234 235 234 231 229 227 226 228 230 229 232 227 217 211 211 212 211
255 273 291 299 292 290 304 290 279 290 284 270 271 294 358 30 33 39 87 150 197 219 227 219 212 217 217 211 207 205 205 203 204 208 208 206 204 200 196 195 195 196 194 191 191 191 194 197 196 196 199 202 202 201 202 203 203 204 206 208 209 211 213 215 217 219 220 224 227 229 231 233 234 233 231 230 227 224 226 226 227 233 225 212 210 214 214 213
248 257 271 280 274 277 305 298 291 296 250 260 293 340 354 28 38 40 86 134 202 212 222 217 207 216 226 222 214 215 218 215 210 211 210 207 205 202 202 201 199 199 199 197 198 197 195 197 199 199 202 204 203 201 201 204 205 205 207 207 206 208 211 214 217 218 217 219 223 226 229 231 234 234 233 231 227 225 227 228 230 232 221 215 222 224 218 214
248 250 255 262 263 267 287 284 285 296 283 295 0 13 0 4 346 327 335 353 7 30 201 204 200 212 229 230 223 221 223 222 219 218 215 212 206 203 206 207 205 202 200 199 202 201 199 199 199 199 203 206 206 204 203 205 207 208 209 209 207 207 209 212 215 217 216 217 221 225 227 229 231 233 233 233 231 229 229 230 232 231 226 228 233 230 224 221
256 255 257 261 258 253 256 265 275 292 314 350 28 50 45 315 289 312 338 343 353 15 75 173 187 202 221 230 230 227 227 226 226 226 223 219 217 214 213 213 213 210 204 201 203 203 203 203 200 199 205 208 209 210 210 209 210 210 211 210 208 208 209 212 215 217 218 218 221 225 228 230 231 232 233 234 235 233 231 233 233 232 234 236 233 229 228 225
271 266 261 261 262 260 251 260 280 303 330 353 5 27 31 264 288 323 331 309 311 327 5 114 174 195 210 227 235 232 229 228 228 229 229 227 228 228 226 222 220 217 210 205 205 205 205 207 206 202 205 209 210 211 214 216 215 213 214 213 210 208 210 213 215 218 219 219 221 224 228 231 233 236 235 235 236 235 234 234 232 233 235 230 226 229 230 225
274 267 262 260 266 273 261 250 274 300 329 345 339 328 293 276 290 315 303 299 309 315 332 18 86 181 200 224 236 236 229 227 229 231 231 232 236 237 238 235 230 225 216 210 209 208 206 209 212 210 206 209 213 211 210 214 217 217 218 219 216 211 211 213 215 218 220 221 223 226 229 231 234 235 234 231 231 232 232 232 231 230 226 218 221 233 231 225
271 261 256 256 263 277 266 239 254 278 332 352 331 316 305 298 297 301 293 297 314 324 326 339 344 250 234 225 225 224 220 222 231 232 229 231 236 237 237 236 232 230 225 217 213 212 210 209 214 217 213 208 212 216 213 211 215 219 221 224 221 215 214 215 216 217 220 222 224 227 230 231 232 231 229 227 227 228 229 229 228 227 223 223 232 240 233 227
278 263 253 252 261 282 279 240 251 279 348 359 325 308 305 305 304 301 295 300 313 320 314 297 265 269 284 258 220 213 209 206 212 220 223 228 230 228 228 229 226 226 227 222 217 216 215 213 213 218 221 213 206 212 217 215 215 219 222 227 226 220 216 216 216 217 220 222 223 226 228 229 229 228 227 225 225 227 229 229 228 230 231 233 238 237 232 229
281 265 255 254 262 279 275 244 252 288 337 345 310 292 288 293 298 306 313 318 325 326 308 277 255 254 273 288 241 215 209 207 205 203 206 216 220 219 222 225 219 216 220 223 221 218 217 217 214 215 221 221 210 205 210 214 216 218 220 225 229 226 221 218 218 219 221 223 224 226 227 228 228 229 229 228 227 228 230 231 230 231 229 227 228 230 231 231
279 268 260 259 265 274 271 254 245 257 280 288 278 276 292 323 305 308 318 324 329 329 314 288 272 262 255 261 271 249 229 225 221 216 210 207 205 206 212 219 218 214 214 217 220 221 220 218 217 217 220 222 216 208 205 206 210 216 217 220 225 227 225 222 220 222 223 224 225 227 229 229 229 230 230 230 230 230 231 232 231 229 226 223 225 228 229 230
Height
5852 5851 5850 5850 5849 5849 5848 5848 5848 5848 5848 5848 5848 5849 5849 5849 5850 5850 5850 5851 5852 5853 5853 5854 5854 5855 5856 5857 5858 5860 5861 5863 5865 5866 5868 5869 5870 5873 5874 5875 5876 5878 5879 5880 5881 5882 5884 5885 5886 5887 5888 5889 5890 5890 5890 5890 5890 5891 5891 5889 5888 5889 5890 5890 5892 5893 5893 5894 5894 5895 5895 5896 5897 5898 5898 5899 5899 5898 5898 5899 5899 5900 5901 5902 5902 5902 5903 5905
5849 5848 5847 5847 5846 5845 5845 5844 5844 5844 5844 5845 5845 5845 5846 5847 5847 5847 5848 5848 5849 5850 5851 5852 5852 5853 5854 5855 5856 5857 5859 5861 5863 5864 5866 5868 5869 5871 5873 5874 5875 5877 5878 5879 5880 5882 5883 5885 5886 5887 5888 5889 5890 5890 5890 5890 5891 5892 5892 5890 5890 5891 5891 5892 5893 5893 5894 5894 5895 5895 5896 5897 5898 5899 5900 5901 5900 5899 5899 5900 5900 5901 5903 5903 5903 5903 5904 5905
5846 5845 5844 5843 5842 5841 5841 5840 5840 5840 5841 5841 5841 5842 5842 5843 5844 5844 5845 5845 5846 5847 5848 5849 5850 5851 5851 5853 5854 5855 5857 5858 5861 5862 5864 5866 5868 5870 5872 5873 5874 5876 5877 5878 5880 5881 5883 5885 5886 5887 5888 5889 5889 5890 5890 5891 5891 5892 5892 5891 5891 5892 5893 5893 5894 5894 5895 5896 5896 5896 5898 5900 5900 5900 5902 5902 5901 5901 5900 5901 5901 5902 5904 5905 5904 5904 5905 5906
5843 5842 5841 5840 5839 5838 5837 5837 5836 5836 5836 5837 5837 5838 5839 5840 5841 5841 5841 5842 5843 5844 5845 5846 5847 5848 5849 5850 5851 5853 5854 5856 5858 5860 5862 5864 5866 5868 5870 5872 5873 5875 5876 5877 5879 5881 5883 5884 5886 5886 5887 5888 5889 5890 5890 5891 5892 5893 5892 5892 5892 5892 5893 5894 5894 5894 5895 5896 5897 5898 5900 5901 5902 5902 5903 5903 5903 5903 5901 5902 5903 5903 5904 5905 5905 5905 5906 5907
5840 5839 5838 5837 5836 5835 5834 5833 5833 5832 5832 5833 5833 5834 5834 5835 5836 5837 5838 5838 5840 5841 5842 5843 5844 5845 5846 5847 5849 5850 5852 5854 5855 5857 5859 5861 5864 5865 5867 5870 5872 5873 5875 5877 5879 5881 5882 5883 5885 5886 5887 5888 5889 5890 5890 5891 5892 5892 5892 5892 5892 5893 5893 5893 5893 5894 5894 5896 5898 5900 5900 5900 5901 5903 5903 5904 5904 5903 5903 5903 5904 5904 5904 5905 5906 5906 5907 5908
5837 5835 5834 5833 5833 5832 5831 5830 5830 5829 5829 5829 5829 5830 5830 5831 5832 5833 5834 5835 5836 5837 5839 5840 5841 5842 5843 5845 5846 5848 5849 5851 5853 5855 5857 5859 5861 5863 5865 5868 5870 5872 5874 5876 5878 5879 5881 5882 5883 5885 5886 5887 5888 5890 5891 5891 5892 5892 5892 5892 5892 5892 5892 5892 5892 5893 5894 5896 5899 5900 5900 5899 5901 5903 5903 5904 5905 5905 5904 5904 5904 5905 5904 5905 5906 5907 5908 5909
5833 5832 5831 5829 5829 5828 5828 5827 5826 5826 5826 5825 5826 5826 5826 5827 5828 5829 5829 5830 5832 5834 5835 5836 5837 5838 5840 5842 5843 5845 5847 5849 5850 5852 5854 5856 5858 5860 5863 5866 5868 5870 5872 5875 5876 5878 5879 5880 5882 5884 5885 5887 5888 5889 5891 5892 5892 5892 5892 5892 5892 5892 5893 5892 5892 5893 5894 5896 5898 5899 5900 5900 5900 5902 5903 5904 5905 5905 5905 5905 5905 5906 5905 5905 5906 5908 5909 5910
5829 5828 5827 5825 5824 5824 5824 5823 5822 5822 5821 5821 5821 5822 5822 5823 5824 5825 5825 5826 5828 5830 5832 5833 5834 5835 5837 5838 5840 5841 5844 5846 5848 5849 5851 5853 5856 5858 5860 5863 5866 5868 5870 5872 5874 5876 5877 5878 5880 5882 5884 5886 5887 5888 5889 5891 5892 5892 5892 5892 5891 5892 5894 5893 5892 5893 5895 5896 5896 5897 5899 5900 5900 5901 5903 5904 5905 5905 5905 5906 5906 5907 5907 5906 5907 5908 5910 5911
5826 5824 5823 5821 5820 5820 5819 5819 5818 5817 5817 5817 5817 5817 5818 5818 5820 5821 5821 5822 5823 5826 5828 5829 5830 5832 5833 5835 5837 5838 5840 5843 5845 5846 5848 5851 5853 5855 5857 5860 5862 5865 5868 5870 5872 5874 5875 5876 5878 5881 5883 5885 5886 5886 5888 5890 5892 5892 5892 5892 5891 5893 5894 5894 5893 5893 5895 5895 5894 5896 5897 5899 5899 5900 5902 5904 5905 5906 5906 5907 5907 5907 5907 5907 5908 5909 5910 5912
5822 5820 5819 5817 5816 5815 5815 5814 5814 5813 5812 5812 5812 5813 5813 5814 5815 5817 5817 5818 5819 5821 5823 5825 5827 5828 5829 5831 5833 5835 5837 5840 5842 5844 5846 5848 5850 5853 5855 5857 5860 5862 5865 5868 5871 5872 5872 5874 5876 5880 5882 5883 5884 5885 5888 5890 5892 5892 5891 5891 5892 5893 5894 5894 5894 5896 5897 5896 5894 5896 5897 5899 5901 5900 5902 5904 5906 5906 5907 5907 5907 5907 5907 5908 5909 5909 5911 5912
5818 5816 5815 5813 5812 5811 5810 5810 5809 5809 5808 5808 5808 5808 5808 5809 5811 5812 5813 5813 5815 5817 5819 5821 5823 5824 5826 5828 5829 5831 5834 5836 5839 5841 5844 5846 5848 5850 5852 5854 5857 5859 5862 5865 5867 5867 5868 5871 5875 5879 5881 5881 5883 5885 5887 5889 5891 5891 5890 5891 5893 5894 5894 5893 5893 5896 5897 5896 5895 5896 5897 5899 5902 5902 5902 5903 5905 5907 5907 5908 5908 5908 5908 5908 5909 5910 5911 5913
5814 5812 5811 5809 5808 5807 5806 5805 5805 5804 5804 5804 5804 5804 5804 5805 5806 5808 5808 5809 5811 5813 5815 5816 5818 5821 5822 5824 5826 5828 5831 5833 5836 5838 5841 5843 5845 5847 5850 5852 5854 5856 5859 5861 5862 5863 5865 5870 5874 5877 5879 5881 5883 5884 5885 5887 5889 5890 5888 5890 5892 5893 5893 5891 5892 5894 5896 5896 5896 5897 5897 5898 5901 5903 5903 5903 5905 5907 5908 5908 5908 5908 5908 5908 5909 5910 5911 5912
5810 5808 5806 5805 5804 5803 5802 5801 5800 5800 5800 5800 5800 5800 5800 5801 5802 5803 5804 5806 5807 5809 5811 5813 5815 5817 5818 5821 5823 5825 5828 5830 5832 5835 5838 5840 5843 5845 5847 5850 5852 5854 5855 5856 5857 5860 5864 5868 5872 5875 5878 5880 5882 5883 5884 5886 5888 5888 5888 5890 5892 5893 5892 5890 5891 5893 5894 5896 5896 5896 5898 5899 5901 5903 5904 5905 5906 5907 5908 5908 5908 5909 5909 5909 5909 5910 5911 5912
5805 5804 5802 5801 5800 5799 5798 5797 5797 5797 5796 5796 5796 5796 5797 5797 5798 5799 5801 5802 5804 5806 5807 5809 5810 5812 5814 5817 5820 5822 5824 5826 5829 5831 5834 5837 5840 5842 5845 5847 5850 5851 5852 5854 5855 5858 5861 5866 5870 5873 5877 5879 5880 5881 5882 5885 5886 5888 5888 5890 5892 5894 5893 5890 5891 5892 5893 5895 5896 5895 5897 5899 5901 5902 5904 5905 5907 5907 5908 5908 5909 5909 5909 5909 5910 5911 5912 5913
5801 5799 5798 5797 5796 5795 5794 5794 5793 5793 5792 5792 5792 5792 5793 5794 5795 5796 5797 5799 5801 5802 5804 5805 5806 5808 5810 5813 5816 5818 5820 5822 5824 5827 5829 5833 5836 5839 5842 5844 5846 5848 5850 5852 5854 5856 5859 5863 5867 5871 5874 5876 5877 5879 5881 5883 5885 5887 5888 5889 5891 5893 5893 5891 5890 5891 5893 5894 5895 5895 5896 5899 5901 5902 5903 5904 5906 5908 5908 5908 5909 5910 5910 5910 5911 5912 5913 5914
5797 5795 5794 5793 5792 5792 5791 5790 5789 5789 5788 5788 5788 5789 5790 5790 5791 5792 5794 5795 5797 5798 5800 5801 5802 5804 5807 5810 5813 5814 5815 5817 5820 5823 5826 5829 5831 5834 5837 5840 5843 5845 5847 5849 5851 5854 5857 5861 5864 5868 5871 5873 5874 5877 5880 5882 5883 5885 5887 5888 5889 5891 5892 5891 5890 5890 5892 5894 5895 5895 5897 5899 5900 5901 5903 5904 5905 5907 5908 5908 5909 5910 5910 5911 5912 5913 5914 5915
5794 5792 5791 5790 5789 5788 5787 5786 5785 5785 5784 5784 5785 5785 5786 5787 5788 5789 5790 5791 5792 5794 5795 5797 5799 5801 5803 5806 5808 5810 5810 5813 5816 5819 5822 5825 5828 5831 5834 5837 5840 5842 5845 5847 5849 5853 5856 5859 5862 5865 5868 5870 5872 5876 5878 5881 5883 5885 5886 5887 5887 5889 5889 5890 5890 5890 5892 5893 5894 5895 5897 5899 5899 5900 5902 5904 5905 5906 5908 5909 5910 5911 5911 5911 5912 5913 5914 5915
5790 5789 5788 5787 5786 5785 5784 5783 5782 5782 5781 5781 5782 5782 5783 5784 5784 5785 5786 5787 5789 5790 5792 5793 5795 5797 5798 5801 5804 5806 5807 5809 5813 5816 5819 5821 5824 5827 5830 5833 5836 5839 5842 5844 5847 5850 5853 5856 5859 5862 5864 5866 5870 5875 5878 5881 5882 5883 5884 5885 5886 5887 5887 5888 5889 5891 5892 5893 5894 5896 5898 5898 5898 5899 5901 5903 5904 5905 5907 5908 5909 5910 5911 5912 5912 5913 5914 5915
5788 5786 5786 5784 5783 5782 5781 5780 5780 5779 5778 5778 5778 5779 5779 5780 5781 5782 5782 5784 5785 5787 5788 5790 5792 5793 5795 5798 5801 5804 5805 5807 5810 5813 5816 5818 5821 5824 5826 5829 5833 5837 5840 5842 5845 5847 5850 5853 5855 5858 5861 5865 5870 5874 5877 5878 5878 5879 5881 5883 5884 5884 5885 5886 5889 5890 5892 5893 5893 5895 5897 5897 5897 5898 5899 5900 5901 5903 5906 5907 5908 5910 5911 5912 5912 5913 5914 5915
5785 5784 5783 5782 5781 5780 5778 5777 5777 5776 5775 5775 5775 5775 5776 5777 5778 5778 5779 5780 5782 5783 5785 5786 5788 5790 5792 5795 5798 5801 5803 5805 5807 5810 5813 5815 5818 5820 5823 5827 5831 5834 5837 5840 5842 5845 5847 5850 5853 5857 5861 5864 5869 5872 5873 5873 5874 5876 5879 5881 5882 5883 5885 5886 5887 5889 5890 5891 5892 5893 5895 5895 5896 5897 5898 5899 5901 5902 5905 5907 5907 5909 5911 5911 5911 5912 5914 5914
5783 5782 5781 5780 5778 5777 5776 5775 5774 5773 5772 5772 5772 5772 5773 5774 5774 5774 5776 5778 5779 5780 5781 5783 5785 5787 5789 5792 5795 5798 5801 5803 5804 5806 5809 5812 5814 5817 5820 5824 5828 5832 5835 5837 5839 5842 5844 5847 5852 5856 5860 5862 5865 5868 5869 5869 5871 5874 5877 5879 5881 5883 5884 5884 5885 5886 5888 5889 5889 5890 5892 5895 5896 5898 5899 5900 5902 5903 5904 5906 5906 5908 5910 5910 5911 5912 5913 5914
5781 5780 5779 5778 5776 5775 5773 5772 5771 5770 5770 5769 5769 5769 5770 5771 5771 5772 5773 5775 5776 5777 5779 5780 5782 5784 5787 5789 5792 5795 5798 5800 5803 5805 5807 5809 5812 5814 5818 5821 5825 5829 5831 5834 5837 5840 5843 5847 5852 5854 5856 5858 5861 5864 5865 5866 5868 5871 5874 5877 5880 5881 5882 5882 5884 5885 5887 5888 5889 5889 5893 5896 5896 5897 5897 5898 5900 5901 5902 5904 5905 5906 5909 5910 5910 5912 5913 5914
5780 5778 5777 5776 5774 5773 5771 5770 5769 5768 5767 5767 5766 5766 5767 5767 5768 5769 5770 5771 5773 5774 5776 5777 5779 5782 5785 5787 5789 5792 5794 5797 5800 5802 5804 5807 5809 5811 5815 5819 5822 5825 5828 5831 5834 5838 5843 5847 5849 5850 5852 5855 5858 5860 5862 5864 5866 5868 5872 5876 5878 5879 5881 5883 5884 5884 5886 5888 5889 5891 5893 5895 5895 5896 5896 5898 5900 5901 5902 5903 5904 5906 5908 5909 5910 5912 5913 5914
5778 5777 5775 5774 5773 5771 5769 5768 5767 5766 5765 5764 5764 5764 5764 5764 5765 5766 5767 5769 5770 5772 5773 5775 5777 5780 5782 5784 5786 5788 5791 5793 5796 5799 5801 5804 5806 5809 5812 5815 5819 5822 5825 5829 5832 5837 5842 5843 5844 5846 5849 5852 5855 5858 5859 5861 5864 5866 5870 5874 5877 5879 5881 5881 5881 5882 5885 5886 5888 5890 5892 5893 5893 5894 5895 5897 5898 5900 5902 5902 5903 5904 5907 5909 5910 5911 5913 5914
5777 5776 5774 5773 5771 5770 5768 5767 5765 5764 5763 5762 5762 5762 5762 5762 5763 5764 5766 5767 5768 5770 5771 5774 5776 5778 5780 5782 5784 5786 5788 5791 5793 5796 5799 5802 5804 5807 5809 5812 5816 5819 5823 5827 5830 5834 5837 5838 5840 5843 5846 5849 5852 5855 5857 5860 5862 5864 5868 5872 5876 5878 5878 5878 5878 5880 5883 5885 5888 5890 5891 5891 5892 5892 5894 5896 5896 5898 5901 5902 5903 5903 5905 5908 5909 5910 5912 5913
5776 5775 5773 5772 5770 5769 5767 5766 5764 5763 5762 5761 5761 5761 5761 5761 5762 5763 5764 5766 5767 5768 5770 5772 5774 5776 5778 5779 5781 5784 5786 5788 5790 5793 5796 5799 5802 5804 5807 5810 5813 5817 5820 5823 5827 5831 5833 5834 5838 5841 5844 5847 5849 5852 5855 5858 5861 5863 5866 5871 5874 5876 5876 5876 5877 5880 5883 5885 5886 5888 5889 5890 5891 5892 5893 5895 5895 5897 5899 5901 5902 5903 5904 5907 5908 5910 5911 5912
5776 5774 5772 5771 5769 5768 5766 5765 5763 5762 5761 5760 5760 5760 5760 5761 5762 5763 5764 5765 5766 5767 5769 5771 5772 5774 5775 5777 5779 5782 5784 5786 5789 5791 5794 5797 5799 5802 5805 5807 5810 5813 5816 5819 5824 5828 5830 5833 5836 5839 5842 5844 5847 5850 5854 5857 5859 5863 5867 5870 5872 5873 5873 5875 5877 5879 5882 5883 5883 5885 5887 5889 5890 5891 5892 5893 5894 5896 5898 5900 5901 5903 5904 5906 5907 5909 5910 5911
5775 5774 5772 5770 5769 5767 5765 5764 5762 5761 5760 5760 5760 5760 5760 5761 5762 5763 5764 5765 5766 5767 5768 5770 5771 5772 5774 5776 5778 5780 5782 5784 5786 5788 5791 5794 5796 5800 5803 5804 5807 5810 5812 5816 5821 5824 5827 5830 5833 5836 5839 5842 5846 5850 5852 5855 5859 5864 5866 5867 5869 5870 5871 5874 5875 5877 5878 5879 5881 5884 5886 5888 5890 5891 5892 5893 5894 5895 5897 5899 5901 5902 5903 5905 5907 5908 5910 5910
5775 5773 5772 5770 5769 5767 5765 5764 5762 5761 5760 5759 5759 5760 5761 5761 5762 5763 5764 5765 5766 5766 5768 5769 5770 5771 5772 5773 5775 5778 5780 5782 5783 5785 5788 5791 5794 5797 5799 5801 5804 5807 5810 5815 5819 5821 5823 5826 5829 5832 5836 5841 5846 5849 5850 5853 5859 5863 5863 5864 5865 5866 5867 5870 5872 5874 5875 5876 5880 5883 5885 5887 5889 5890 5892 5892 5893 5895 5896 5898 5900 5901 5903 5905 5906 5907 5909 5910
5775 5773 5772 5770 5769 5767 5766 5764 5763 5762 5761 5760 5760 5761 5761 5762 5763 5763 5764 5765 5765 5766 5768 5768 5769 5770 5770 5772 5774 5776 5778 5780 5781 5783 5786 5788 5792 5794 5796 5799 5801 5804 5808 5813 5817 5819 5821 5824 5826 5829 5834 5839 5843 5846 5848 5853 5858 5859 5860 5860 5861 5862 5864 5866 5868 5870 5871 5873 5878 5882 5883 5885 5888 5889 5890 5891 5892 5894 5895 5897 5899 5901 5902 5904 5905 5906 5908 5909
5774 5773 5772 5771 5769 5768 5766 5765 5764 5763 5762 5761 5761 5761 5762 5763 5763 5764 5764 5764 5765 5766 5767 5768 5768 5769 5770 5771 5773 5775 5777 5779 5780 5782 5784 5787 5789 5791 5793 5796 5799 5802 5806 5811 5815 5817 5819 5822 5825 5829 5833 5836 5838 5841 5845 5850 5854 5855 5856 5857 5858 5859 5862 5864 5866 5867 5867 5871 5877 5880 5880 5882 5886 5888 5889 5890 5891 5892 5893 5895 5897 5899 5901 5902 5904 5905 5907 5908
5774 5773 5772 5771 5770 5768 5767 5766 5765 5764 5763 5763 5763 5763 5763 5764 5764 5764 5764 5764 5765 5766 5767 5767 5767 5768 5769 5771 5773 5775 5777 5779 5781 5782 5784 5786 5788 5789 5792 5794 5797 5800 5804 5809 5812 5814 5817 5819 5823 5827 5830 5833 5835 5837 5842 5846 5848 5850 5852 5853 5855 5856 5857 5860 5863 5864 5867 5872 5875 5878 5879 5880 5883 5885 5886 5888 5889 5890 5891 5892 5894 5896 5898 5901 5903 5904 5905 5906
5774 5773 5772 5771 5770 5769 5768 5767 5766 5765 5765 5765 5764 5764 5764 5764 5765 5765 5765 5765 5765 5766 5766 5767 5767 5767 5769 5771 5773 5775 5776 5778 5780 5781 5783 5785 5787 5789 5791 5793 5795 5798 5802 5806 5808 5811 5814 5817 5821 5825 5828 5830 5832 5835 5839 5843 5844 5846 5848 5850 5852 5853 5853 5857 5860 5862 5866 5870 5872 5875 5876 5878 5881 5882 5884 5886 5887 5888 5889 5891 5892 5894 5895 5898 5900 5901 5902 5904
5774 5773 5772 5771 5770 5769 5768 5767 5767 5767 5766 5766 5765 5765 5765 5765 5766 5766 5766 5766 5766 5766 5767 5767 5767 5768 5769 5770 5773 5775 5777 5778 5780 5781 5783 5785 5786 5788 5790 5792 5794 5796 5800 5803 5805 5808 5811 5814 5818 5822 5825 5828 5832 5835 5838 5841 5843 5844 5846 5848 5850 5851 5852 5855 5858 5861 5865 5869 5870 5871 5872 5874 5878 5880 5882 5885 5886 5886 5888 5890 5892 5893 5894 5896 5897 5899 5900 5902
5774 5773 5772 5771 5771 5770 5769 5768 5768 5768 5767 5767 5766 5765 5766 5766 5766 5765 5766 5767 5767 5767 5767 5767 5767 5768 5769 5770 5772 5774 5776 5778 5779 5780 5782 5783 5784 5786 5788 5789 5792 5795 5798 5801 5803 5805 5809 5812 5815 5819 5823 5827 5831 5833 5836 5839 5840 5842 5844 5846 5848 5850 5851 5853 5856 5860 5864 5867 5868 5869 5869 5873 5877 5879 5881 5883 5884 5885 5887 5889 5892 5894 5896 5897 5898 5898 5899 5900
5774 5773 5772 5772 5771 5771 5770 5769 5769 5768 5768 5767 5767 5766 5767 5767 5766 5765 5766 5767 5767 5767 5768 5768 5768 5768 5769 5770 5771 5774 5775 5776 5778 5779 5780 5781 5782 5784 5786 5788 5791 5793 5796 5799 5801 5804 5807 5810 5813 5817 5821 5825 5828 5831 5834 5836 5837 5839 5842 5844 5846 5848 5849 5851 5853 5857 5860 5862 5864 5866 5868 5873 5876 5877 5879 5881 5881 5883 5885 5888 5891 5893 5895 5897 5899 5899 5900 5901
5773 5773 5772 5772 5771 5771 5770 5770 5770 5769 5769 5768 5767 5767 5767 5767 5767 5766 5766 5766 5767 5767 5768 5768 5768 5768 5768 5769 5772 5774 5774 5775 5777 5778 5778 5779 5780 5781 5784 5787 5790 5793 5796 5798 5800 5804 5807 5809 5812 5815 5819 5822 5825 5827 5831 5833 5835 5837 5840 5841 5844 5846 5848 5849 5850 5853 5856 5858 5861 5864 5867 5871 5873 5875 5877 5879 5880 5881 5883 5887 5890 5892 5894 5894 5896 5897 5900 5902
5773 5773 5772 5772 5771 5771 5770 5770 5770 5769 5769 5769 5768 5767 5767 5767 5766 5766 5766 5766 5767 5767 5768 5769 5769 5769 5769 5770 5772 5773 5774 5775 5776 5776 5777 5778 5779 5780 5783 5786 5789 5792 5794 5797 5799 5802 5805 5807 5810 5813 5816 5819 5821 5824 5827 5829 5832 5835 5838 5840 5842 5844 5846 5847 5848 5849 5852 5855 5858 5861 5865 5868 5871 5873 5876 5878 5879 5881 5883 5885 5888 5890 5891 5892 5893 5895 5898 5900
5772 5772 5772 5772 5771 5771 5770 5770 5770 5769 5769 5769 5768 5768 5767 5767 5766 5766 5766 5766 5767 5768 5768 5769 5769 5769 5770 5771 5772 5773 5773 5775 5776 5776 5777 5778 5779 5779 5781 5784 5787 5790 5792 5794 5797 5800 5803 5806 5808 5811 5813 5816 5819 5821 5823 5826 5829 5832 5834 5837 5840 5842 5844 5845 5846 5848 5850 5853 5856 5859 5862 5865 5868 5871 5874 5876 5877 5879 5881 5884 5886 5888 5889 5890 5891 5894 5896 5898
5771 5771 5771 5771 5771 5770 5770 5770 5770 5769 5769 5768 5768 5768 5768 5767 5766 5766 5766 5766 5767 5768 5769 5769 5769 5769 5770 5771 5772 5773 5773 5774 5775 5776 5777 5778 5779 5780 5781 5783 5785 5788 5790 5792 5795 5798 5801 5803 5806 5809 5812 5814 5816 5818 5821 5824 5827 5829 5831 5834 5837 5840 5841 5843 5844 5845 5847 5850 5854 5856 5859 5862 5866 5869 5871 5874 5876 5878 5879 5881 5883 5884 5886 5887 5889 5892 5894 5895
5770 5770 5770 5770 5770 5770 5770 5770 5769 5769 5768 5768 5769 5768 5768 5767 5766 5766 5766 5766 5767 5767 5768 5769 5769 5769 5770 5771 5772 5773 5774 5774 5775 5776 5777 5778 5779 5781 5781 5782 5784 5786 5788 5790 5793 5796 5799 5801 5804 5807 5809 5811 5813 5815 5818 5821 5823 5826 5829 5831 5834 5836 5839 5841 5842 5843 5845 5848 5851 5854 5857 5860 5863 5866 5869 5872 5874 5876 5878 5880 5881 5882 5883 5885 5887 5890 5892 5893
5769 5769 5769 5769 5769 5769 5769 5769 5768 5768 5768 5768 5769 5768 5767 5766 5766 5765 5765 5765 5766 5767 5767 5768 5768 5769 5770 5771 5771 5772 5773 5774 5775 5776 5777 5778 5779 5781 5781 5782 5784 5785 5787 5789 5791 5794 5797 5799 5802 5805 5807 5809 5810 5813 5815 5817 5819 5822 5824 5827 5830 5833 5836 5838 5839 5841 5844 5846 5849 5852 5854 5857 5859 5862 5866 5870 5873 5875 5876 5877 5879 5880 5882 5883 5885 5887 5889 5891
5769 5769 5769 5769 5769 5769 5769 5769 5768 5768 5767 5768 5768 5767 5767 5766 5766 5765 5765 5765 5765 5765 5766 5766 5767 5768 5769 5769 5771 5771 5772 5773 5774 5775 5776 5777 5778 5779 5780 5781 5782 5784 5786 5788 5790 5792 5795 5798 5801 5804 5806 5807 5809 5811 5813 5814 5816 5818 5820 5822 5826 5830 5833 5836 5838 5840 5842 5844 5847 5849 5851 5853 5855 5859 5863 5867 5870 5872 5873 5874 5876 5877 5880 5883 5884 5885 5886 5887
5769 5769 5769 5769 5769 5769 5768 5768 5768 5767 5767 5767 5767 5767 5766 5766 5766 5765 5765 5764 5764 5764 5765 5766 5767 5768 5768 5768 5770 5771 5771 5772 5773 5774 5775 5776 5777 5778 5778 5779 5781 5783 5785 5787 5789 5791 5794 5796 5799 5802 5804 5805 5807 5809 5810 5812 5813 5814 5816 5819 5823 5827 5830 5833 5836 5838 5840 5841 5844 5847 5849 5851 5854 5856 5860 5864 5867 5869 5870 5871 5873 5875 5878 5881 5883 5884 5884 5885
5768 5768 5768 5768 5768 5768 5768 5768 5767 5766 5767 5767 5767 5766 5766 5766 5765 5765 5764 5764 5764 5764 5765 5765 5766 5767 5767 5767 5769 5770 5770 5771 5772 5773 5774 5775 5776 5776 5777 5778 5780 5782 5784 5786 5788 5790 5792 5795 5797 5800 5801 5802 5804 5805 5807 5808 5809 5811 5813 5817 5821 5824 5827 5830 5832 5835 5838 5840 5842 5844 5847 5849 5851 5854 5858 5861 5864 5866 5867 5869 5870 5873 5876 5878 5879 5881 5883 5885
5767 5767 5767 5766 5766 5767 5767 5767 5766 5765 5766 5766 5766 5766 5765 5765 5764 5764 5764 5764 5764 5764 5764 5765 5765 5766 5766 5766 5767 5768 5769 5770 5770 5771 5772 5773 5774 5775 5776 5778 5780 5781 5783 5785 5787 5789 5791 5793 5795 5797 5799 5799 5800 5802 5803 5805 5807 5809 5812 5815 5819 5822 5824 5827 5829 5832 5836 5838 5840 5842 5844 5847 5849 5852 5856 5859 5861 5863 5865 5866 5868 5871 5873 5875 5876 5878 5880 5882
5766 5766 5766 5765 5765 5766 5766 5766 5765 5765 5765 5765 5765 5765 5765 5764 5764 5764 5763 5763 5763 5763 5764 5764 5765 5766 5766 5766 5766 5766 5767 5767 5768 5769 5771 5772 5773 5774 5776 5778 5779 5780 5782 5784 5785 5787 5790 5791 5793 5794 5795 5796 5797 5799 5800 5803 5805 5808 5811 5814 5817 5819 5822 5824 5827 5830 5833 5835 5837 5840 5842 5845 5847 5850 5854 5857 5859 5861 5862 5864 5865 5868 5870 5871 5872 5874 5877 5879
5765 5765 5765 5764 5764 5765 5766 5765 5764 5764 5764 5764 5764 5764 5764 5763 5763 5763 5763 5762 5762 5762 5763 5763 5764 5764 5764 5764 5764 5764 5765 5765 5766 5767 5769 5770 5771 5772 5774 5776 5777 5779 5780 5782 5783 5785 5787 5789 5790 5791 5792 5793 5795 5796 5798 5800 5803 5807 5809 5812 5815 5818 5819 5821 5824 5826 5829 5832 5835 5838 5840 5843 5845 5848 5851 5854 5856 5858 5859 5861 5863 5865 5867 5868 5870 5872 5874 5876
5765 5764 5764 5764 5764 5765 5765 5765 5764 5763 5764 5764 5764 5763 5763 5763 5763 5763 5762 5762 5762 5762 5762 5762 5762 5762 5762 5762 5762 5763 5764 5764 5765 5766 5767 5768 5769 5770 5772 5773 5775 5777 5779 5780 5781 5783 5785 5787 5788 5789 5789 5791 5793 5794 5796 5798 5802 5805 5808 5810 5813 5816 5817 5818 5821 5823 5826 5829 5832 5835 5837 5840 5842 5845 5848 5850 5852 5854 5856 5858 5861 5863 5864 5865 5867 5868 5870 5872
5763 5763 5763 5763 5763 5764 5765 5764 5763 5763 5763 5764 5763 5763 5762 5762 5762 5762 5762 5761 5761 5761 5761 5761 5761 5761 5761 5761 5761 5762 5763 5763 5764 5765 5765 5766 5767 5768 5770 5771 5773 5775 5776 5778 5779 5780 5782 5784 5785 5787 5787 5788 5790 5792 5794 5797 5800 5803 5806 5808 5810 5812 5813 5815 5818 5820 5823 5826 5829 5832 5834 5836 5839 5841 5844 5847 5849 5852 5854 5857 5859 5860 5861 5862 5864 5865 5867 5869
5762 5762 5762 5762 5762 5763 5763 5763 5763 5762 5762 5763 5763 5762 5762 5762 5761 5761 5761 5760 5760 5760 5760 5760 5760 5760 5760 5760 5760 5761 5761 5762 5762 5763 5763 5764 5765 5766 5768 5769 5770 5772 5773 5775 5776 5778 5779 5781 5783 5784 5785 5786 5788 5790 5792 5795 5798 5801 5804 5806 5807 5808 5809 5812 5815 5818 5820 5824 5827 5830 5832 5834 5837 5839 5841 5844 5847 5850 5852 5855 5856 5857 5858 5860 5862 5864 5865 5867
5761 5761 5761 5761 5761 5762 5762 5762 5762 5762 5762 5762 5762 5761 5762 5762 5761 5760 5760 5760 5760 5759 5759 5759 5759 5759 5759 5759 5759 5760 5760 5760 5761 5761 5761 5762 5763 5764 5766 5767 5768 5769 5770 5772 5773 5775 5776 5778 5780 5781 5782 5784 5787 5787 5788 5790 5794 5797 5800 5803 5804 5805 5807 5810 5813 5816 5818 5822 5825 5828 5830 5832 5835 5837 5840 5842 5845 5848 5850 5851 5852 5854 5856 5858 5860 5862 5863 5865